Content
SEND FEEDBACK

Daily
Averages
Monthly
Summary
United States of America

TRENTON, MISSOURI


Home > North America > United States > Missouri
Elevation: 805 feet     Latitude: 40 04N     Longitude: 093 37W

WEATHER
 
SELECT A DAY
Number of Records: 136,411;   Date Range: 5/21/98 - 8/12/14
 
SHARE

PRINT THIS DATA

[ ← Previous Day ]
WEATHER ALMANAC - JANUARY 31, 2013
[ Next Day → ]
[ °C ]   °F
Weather ElementAverageHighLow
Temperature14.3 °F21.9 °F (1:52 am)5 °F (10:52 pm)
Dewpoint2.9 °F14 °F (1:52 am)-6 °F (10:52 pm)
Humidity61 %72 % (1:52 am)54 % (10:52 am)
Barometer30.26 in30.56 in (11:52 pm)30.01 in (1:52 am)
Wind Speed9.7 mph17.3 mph (12:52 pm)
Wind Gust28.8 mph (12:52 pm)
Weather ElementAverage
Wind DirectionWSW (253.9 °)

Weather ElementTotal
Precipitation---
Heating Degree Days51.6 (Base 65)
Averaged from 23 records on January 31, 2013
WEATHER CONDITIONS BREAKOUT
WIND DIRECTION BREAKOUT
WEATHER BY HOUR - JANUARY 31, 2013
[ °C ]   °F
Local TimeTemperatureDewpointHumidityBarometerVisibilityWind DirectionWind SpeedGust SpeedPrecipitationEventsConditions
1:52 AM21.9 °F14.0 °F72 %30.01 inVariable5.8 mph
2:52 AM21.9 °F14.0 °F72 %30.02 inVariable5.8 mph
3:52 AM21.9 °F12.9 °F68 %30.01 inWest (280°)6.9 mph
4:52 AM21.9 °F12.9 °F68 %30.02 inVariable3.5 mph
5:52 AM21.0 °F12.0 °F68 %30.03 inNW (310°)8.1 mph
6:52 AM21.0 °F12.0 °F68 %30.06 inNW (320°)5.8 mph
7:52 AM17.1 °F7.0 °F65 %30.10 inNW (320°)10.4 mph
8:52 AM16.0 °F5.0 °F62 %30.13 inNW (310°)12.7 mph19.6 mph
9:52 AM16.0 °F3.0 °F57 %30.17 inWNW (300°)11.5 mph19.6 mph
10:52 AM15.1 °F1.0 °F54 %30.21 inWNW (300°)15.0 mph21.9 mph
11:52 AM15.1 °F1.0 °F54 %30.23 inWNW (300°)15.0 mph21.9 mph
12:52 PM15.1 °F1.0 °F54 %30.26 inNW (310°)17.3 mph28.8 mph
1:52 PM16.0 °F1.9 °F54 %30.29 inNW (310°)13.8 mph21.9 mph
2:52 PM15.1 °F1.9 °F56 %30.31 inNW (320°)10.4 mph21.9 mph
3:52 PM12.9 °F1.9 °F62 %30.34 inNW (310°)11.5 mph23.0 mph
4:52 PM10.9 °F-2.0 °F56 %30.38 inNW (320°)10.4 mph24.2 mph
5:52 PM10.0 °F-2.9 °F56 %30.40 inNW (310°)15.0 mph21.9 mph
6:52 PM9.0 °F-4.0 °F56 %30.44 inNW (320°)10.4 mph21.9 mph
7:52 PM8.1 °F-4.0 °F58 %30.47 inNW (310°)10.4 mph
8:52 PM7.0 °F-5.1 °F58 %30.49 inNW (310°)8.1 mph
9:52 PM6.1 °F-5.1 °F60 %30.51 inNW (310°)6.9 mph
10:52 PM5.0 °F-6.0 °F61 %30.54 inWest (270°)4.6 mph
11:52 PM5.0 °F-5.1 °F63 %30.56 inVariable4.6 mph
Hourly data recorded from KCDJ, located miles away from Trenton, Missouri







STORIES FROM OUR PARTNERS